"Period start","avg(HW err(1)/warn(2) (#))","avg(Visibility (m))","avg(Weather code (#))","avg(Precip intensity (mm/h))","min(HW err(1)/warn(2) (#))","max(HW err(1)/warn(2) (#))","std(HW err(1)/warn(2) (#))","med(HW err(1)/warn(2) (#))","min(Visibility (m))","max(Visibility (m))","std(Visibility (m))","med(Visibility (m))","min(Weather code (#))","max(Weather code (#))","std(Weather code (#))","med(Weather code (#))","min(Precip intensity (mm/h))","max(Precip intensity (mm/h))","std(Precip intensity (mm/h))","med(Precip intensity (mm/h))"
2014-09-08 00:00:00,2,43943,0,0.00,2,2,0,2,34596,50000,4739,44172,0,0,0,0,0.00,0.00,0.00,0.00
2014-09-08 00:10:00,2,41608,0,0.00,2,2,0,2,36412,47759,3617,41008,0,0,0,0,0.00,0.00,0.00,0.00
2014-09-08 00:20:00,2,45666,0,0.00,2,2,0,2,35851,50000,4885,46955,0,0,0,0,0.00,0.00,0.00,0.00
2014-09-08 00:30:00,2,41923,0,0.00,2,2,0,2,35239,50000,4907,41594,0,0,0,0,0.00,0.00,0.00,0.00
2014-09-08 00:40:00,2,47963,0,0.00,2,2,0,2,44229,50000,1816,48264,0,0,0,0,0.00,0.00,0.00,0.00
2014-09-08 00:50:00,2,46864,0,0.00,2,2,0,2,42224,50000,2480,46690,0,0,0,0,0.00,0.00,0.00,0.00
2014-09-08 01:00:00,2,49138,0,0.00,2,2,0,2,44795,50000,1538,49912,0,0,0,0,0.00,0.00,0.00,0.00
2014-09-08 01:10:00,2,48440,0,0.00,2,2,0,2,44298,50000,1932,49210,0,0,0,0,0.00,0.00,0.00,0.00
2014-09-08 01:20:00,2,47842,0,0.00,2,2,0,2,44132,50000,2037,47963,0,0,0,0,0.00,0.00,0.00,0.00
2014-09-08 01:30:00,2,45840,0,0.00,2,2,0,2,42645,50000,2539,45486,0,0,0,0,0.00,0.00,0.00,0.00
2014-09-08 01:40:00,2,46316,0,0.00,2,2,0,2,42574,50000,2792,45998,0,0,0,0,0.00,0.00,0.00,0.00
2014-09-08 01:50:00,2,48449,0,0.00,2,2,0,2,42633,50000,2847,49998,0,0,0,0,0.00,0.00,0.00,0.00
2014-09-08 02:00:00,2,48920,0,0.00,2,2,0,2,44883,50000,1705,50000,0,0,0,0,0.00,0.00,0.00,0.00
2014-09-08 02:10:00,2,48270,0,0.00,2,2,0,2,41513,50000,2666,49672,0,0,0,0,0.00,0.00,0.00,0.00
2014-09-08 02:20:00,2,45938,0,0.00,2,2,0,2,43086,49813,1940,45758,0,0,0,0,0.00,0.00,0.00,0.00
2014-09-08 02:30:00,2,44288,0,0.00,2,2,0,2,30152,50000,6116,46547,0,0,0,0,0.00,0.00,0.00,0.00
2014-09-08 02:40:00,2,44062,0,0.00,2,2,0,2,37791,49071,3212,44109,0,0,0,0,0.00,0.00,0.00,0.00
2014-09-08 02:50:00,2,42233,0,0.00,2,2,0,2,36401,47147,3393,43416,0,0,0,0,0.00,0.00,0.00,0.00
2014-09-08 03:00:00,2,31655,0,0.00,2,2,0,2,23655,36048,3935,32831,0,0,0,0,0.00,0.00,0.00,0.00
2014-09-08 03:10:00,2,33308,0,0.00,2,2,0,2,24976,41853,4215,33771,0,0,0,0,0.00,0.00,0.00,0.00
2014-09-08 03:20:00,2,36547,0,0.00,2,2,0,2,32819,41304,2795,36250,0,0,0,0,0.00,0.00,0.00,0.00
2014-09-08 03:30:00,2,30406,0,0.00,2,2,0,2,22691,38799,5380,31932,0,0,0,0,0.00,0.00,0.00,0.00
2014-09-08 03:40:00,2,35138,0,0.00,2,2,0,2,25233,49767,7874,33044,0,0,0,0,0.00,0.00,0.00,0.00
2014-09-08 03:50:00,2,47657,0,0.00,2,2,0,2,45468,50000,1869,47140,0,0,0,0,0.00,0.00,0.00,0.00
2014-09-08 04:00:00,2,45387,0,0.00,2,2,0,2,37193,50000,3968,45481,0,0,0,0,0.00,0.00,0.00,0.00
2014-09-08 04:10:00,2,47910,0,0.00,2,2,0,2,44382,50000,1981,48140,0,0,0,0,0.00,0.00,0.00,0.00
2014-09-08 04:20:00,2,46312,0,0.00,2,2,0,2,37921,50000,4072,47560,0,0,0,0,0.00,0.00,0.00,0.00
2014-09-08 04:30:00,2,48114,0,0.00,2,2,0,2,41097,50000,3076,50000,0,0,0,0,0.00,0.00,0.00,0.00
2014-09-08 04:40:00,2,42565,0,0.00,2,2,0,2,37909,46638,2749,43244,0,0,0,0,0.00,0.00,0.00,0.00
2014-09-08 04:50:00,2,47411,0,0.00,2,2,0,2,43133,50000,2182,47612,0,0,0,0,0.00,0.00,0.00,0.00
2014-09-08 05:00:00,2,44888,0,0.00,2,2,0,2,35762,49750,4227,44981,0,0,0,0,0.00,0.00,0.00,0.00
2014-09-08 05:10:00,2,44718,0,0.00,2,2,0,2,38630,50000,4454,44818,0,0,0,0,0.00,0.00,0.00,0.00
2014-09-08 05:20:00,2,48645,0,0.00,2,2,0,2,40890,50000,2759,50000,0,0,0,0,0.00,0.00,0.00,0.00
2014-09-08 05:30:00,2,40729,0,0.00,2,2,0,2,32702,46461,3621,40105,0,0,0,0,0.00,0.00,0.00,0.00
2014-09-08 05:40:00,2,43680,0,0.00,2,2,0,2,37146,49313,3717,44466,0,0,0,0,0.00,0.00,0.00,0.00
2014-09-08 05:50:00,2,45324,0,0.00,2,2,0,2,32674,50000,4593,46180,0,0,0,0,0.00,0.00,0.00,0.00
2014-09-08 06:00:00,2,44576,0,0.00,2,2,0,2,38903,48615,3064,44908,0,0,0,0,0.00,0.00,0.00,0.00
2014-09-08 06:10:00,2,46036,0,0.00,2,2,0,2,38489,50000,4362,47610,0,0,0,0,0.00,0.00,0.00,0.00
2014-09-08 06:20:00,2,48863,0,0.00,2,2,0,2,43238,50000,2114,49914,0,0,0,0,0.00,0.00,0.00,0.00
2014-09-08 06:30:00,2,46877,0,0.00,2,2,0,2,40757,50000,2863,47273,0,0,0,0,0.00,0.00,0.00,0.00
2014-09-08 06:40:00,2,44744,0,0.00,2,2,0,2,40723,50000,3113,43850,0,0,0,0,0.00,0.00,0.00,0.00
2014-09-08 06:50:00,2,42221,0,0.00,2,2,0,2,34551,47583,4290,42564,0,0,0,0,0.00,0.00,0.00,0.00
2014-09-08 07:00:00,2,44383,0,0.00,2,2,0,2,33762,49484,4736,45770,0,0,0,0,0.00,0.00,0.00,0.00
2014-09-08 07:10:00,2,46476,0,0.00,2,2,0,2,38433,50000,3579,47072,0,0,0,0,0.00,0.00,0.00,0.00
2014-09-08 07:20:00,2,47464,0,0.00,2,2,0,2,42677,50000,2569,48020,0,0,0,0,0.00,0.00,0.00,0.00
2014-09-08 07:30:00,2,45194,0,0.00,2,2,0,2,40367,50000,3864,44922,0,0,0,0,0.00,0.00,0.00,0.00
2014-09-08 07:40:00,2,44252,0,0.00,2,2,0,2,36333,48463,4204,46360,0,0,0,0,0.00,0.00,0.00,0.00
2014-09-08 07:50:00,2,45705,0,0.00,2,2,0,2,36834,50000,4827,47318,0,0,0,0,0.00,0.00,0.00,0.00
2014-09-08 08:00:00,2,47747,0,0.00,2,2,0,2,42227,50000,2623,49072,0,0,0,0,0.00,0.00,0.00,0.00
2014-09-08 08:10:00,2,43916,0,0.00,2,2,0,2,36891,50000,4629,43780,0,0,0,0,0.00,0.00,0.00,0.00
2014-09-08 08:20:00,2,48907,0,0.00,0,2,1,2,44776,50000,2006,50000,0,0,0,0,0.00,0.00,0.00,0.00
2014-09-08 08:30:00,2,49843,0,0.00,2,2,0,2,48647,50000,404,50000,0,0,0,0,0.00,0.00,0.00,0.00
2014-09-08 08:40:00,2,49513,0,0.00,2,2,0,2,47520,50000,876,50000,0,0,0,0,0.00,0.00,0.00,0.00
2014-09-08 08:50:00,2,49704,0,0.00,2,2,0,2,47378,50000,782,50000,0,0,0,0,0.00,0.00,0.00,0.00
2014-09-08 09:00:00,2,48661,0,0.00,2,2,0,2,45027,50000,1762,49754,0,0,0,0,0.00,0.00,0.00,0.00
2014-09-08 09:10:00,2,49959,0,0.00,2,2,0,2,49586,50000,124,50000,0,0,0,0,0.00,0.00,0.00,0.00
2014-09-08 09:20:00,2,49907,0,0.00,2,2,0,2,49066,50000,280,50000,0,0,0,0,0.00,0.00,0.00,0.00
2014-09-08 09:30:00,2,49310,0,0.00,2,2,0,2,46429,50000,1172,50000,0,0,0,0,0.00,0.00,0.00,0.00
2014-09-08 09:40:00,2,50000,0,0.00,2,2,0,2,50000,50000,0,50000,0,0,0,0,0.00,0.00,0.00,0.00
2014-09-08 09:50:00,2,49988,0,0.00,2,2,0,2,49876,50000,37,50000,0,0,0,0,0.00,0.00,0.00,0.00
2014-09-08 10:00:00,2,49998,0,0.00,2,2,0,2,49981,50000,6,50000,0,0,0,0,0.00,0.00,0.00,0.00
2014-09-08 10:10:00,2,50000,0,0.00,2,2,0,2,50000,50000,0,50000,0,0,0,0,0.00,0.00,0.00,0.00
2014-09-08 10:20:00,2,49712,0,0.00,2,2,0,2,48910,50000,378,49993,0,0,0,0,0.00,0.00,0.00,0.00
2014-09-08 10:30:00,2,49971,0,0.00,2,2,0,2,49712,50000,86,50000,0,0,0,0,0.00,0.00,0.00,0.00
2014-09-08 10:40:00,2,49853,0,0.00,2,2,0,2,49311,50000,255,50000,0,0,0,0,0.00,0.00,0.00,0.00
2014-09-08 10:50:00,2,41025,0,0.00,2,2,0,2,25209,50000,8639,43190,0,0,0,0,0.00,0.00,0.00,0.00
2014-09-08 11:00:00,2,38795,0,0.00,2,2,0,2,19330,50000,11668,44742,0,0,0,0,0.00,0.00,0.00,0.00
2014-09-08 11:10:00,2,49185,0,0.00,2,2,0,2,44133,50000,1816,50000,0,0,0,0,0.00,0.00,0.00,0.00
2014-09-08 11:20:00,2,45538,0,0.00,2,2,0,2,34793,50000,5545,47534,0,0,0,0,0.00,0.00,0.00,0.00
2014-09-08 11:30:00,2,49995,0,0.00,0,2,1,2,49949,50000,15,50000,0,0,0,0,0.00,0.00,0.00,0.00
2014-09-08 11:40:00,1,49892,0,0.00,0,2,1,0,48921,50000,324,50000,0,0,0,0,0.00,0.00,0.00,0.00
2014-09-08 11:50:00,0,49970,0,0.00,0,0,0,0,49695,50000,92,50000,0,0,0,0,0.00,0.00,0.00,0.00
2014-09-08 12:00:00,0,49290,0,0.00,0,0,0,0,47577,50000,910,49908,0,0,0,0,0.00,0.00,0.00,0.00
2014-09-08 12:10:00,0,49079,0,0.00,0,0,0,0,45170,50000,1845,50000,0,0,0,0,0.00,0.00,0.00,0.00
2014-09-08 12:20:00,0,49827,0,0.00,0,0,0,0,48267,50000,520,50000,0,0,0,0,0.00,0.00,0.00,0.00
2014-09-08 12:30:00,0,50000,0,0.00,0,0,0,0,50000,50000,0,50000,0,0,0,0,0.00,0.00,0.00,0.00
2014-09-08 12:40:00,0,49924,0,0.00,0,0,0,0,49254,50000,223,50000,0,0,0,0,0.00,0.00,0.00,0.00
2014-09-08 12:50:00,0,50000,0,0.00,0,0,0,0,50000,50000,0,50000,0,0,0,0,0.00,0.00,0.00,0.00
2014-09-08 13:00:00,0,50000,0,0.00,0,0,0,0,50000,50000,0,50000,0,0,0,0,0.00,0.00,0.00,0.00
2014-09-08 13:10:00,0,49969,0,0.00,0,0,0,0,49689,50000,93,50000,0,0,0,0,0.00,0.00,0.00,0.00
2014-09-08 13:20:00,0,50000,0,0.00,0,0,0,0,50000,50000,0,50000,0,0,0,0,0.00,0.00,0.00,0.00
2014-09-08 13:30:00,0,49447,0,0.00,0,0,0,0,46760,50000,1127,50000,0,0,0,0,0.00,0.00,0.00,0.00
2014-09-08 13:40:00,0,50000,0,0.00,0,0,0,0,50000,50000,0,50000,0,0,0,0,0.00,0.00,0.00,0.00
2014-09-08 13:50:00,0,50000,0,0.00,0,0,0,0,50000,50000,0,50000,0,0,0,0,0.00,0.00,0.00,0.00
2014-09-08 14:00:00,0,50000,0,0.00,0,0,0,0,50000,50000,0,50000,0,0,0,0,0.00,0.00,0.00,0.00
2014-09-08 14:10:00,0,50000,0,0.00,0,0,0,0,50000,50000,0,50000,0,0,0,0,0.00,0.00,0.00,0.00
2014-09-08 14:20:00,0,50000,0,0.00,0,0,0,0,50000,50000,0,50000,0,0,0,0,0.00,0.00,0.00,0.00
2014-09-08 14:30:00,0,49918,0,0.00,0,0,0,0,49184,50000,245,50000,0,0,0,0,0.00,0.00,0.00,0.00
2014-09-08 14:40:00,0,49993,0,0.00,0,0,0,0,49930,50000,21,50000,0,0,0,0,0.00,0.00,0.00,0.00
2014-09-08 14:50:00,0,49916,0,0.00,0,2,1,0,49156,50000,253,50000,0,0,0,0,0.00,0.00,0.00,0.00
2014-09-08 15:00:00,2,49787,0,0.00,0,2,1,2,47868,50000,640,50000,0,0,0,0,0.00,0.00,0.00,0.00
2014-09-08 15:10:00,2,50000,0,0.00,0,2,1,2,50000,50000,0,50000,0,0,0,0,0.00,0.00,0.00,0.00
2014-09-08 15:20:00,2,50000,0,0.00,2,2,0,2,50000,50000,0,50000,0,0,0,0,0.00,0.00,0.00,0.00
2014-09-08 15:30:00,2,50000,0,0.00,2,2,0,2,50000,50000,0,50000,0,0,0,0,0.00,0.00,0.00,0.00
2014-09-08 15:40:00,2,50000,0,0.00,2,2,0,2,50000,50000,0,50000,0,0,0,0,0.00,0.00,0.00,0.00
2014-09-08 15:50:00,2,50000,0,0.00,0,2,1,2,50000,50000,0,50000,0,0,0,0,0.00,0.00,0.00,0.00
2014-09-08 16:00:00,0,50000,0,0.00,0,0,0,0,50000,50000,0,50000,0,0,0,0,0.00,0.00,0.00,0.00
2014-09-08 16:10:00,0,50000,0,0.00,0,0,0,0,50000,50000,0,50000,0,0,0,0,0.00,0.00,0.00,0.00
2014-09-08 16:20:00,0,49966,0,0.00,0,0,0,0,49664,50000,101,50000,0,0,0,0,0.00,0.00,0.00,0.00
2014-09-08 16:30:00,2,49990,0,0.00,0,2,1,2,49897,50000,31,50000,0,0,0,0,0.00,0.00,0.00,0.00
2014-09-08 16:40:00,2,50000,0,0.00,2,2,0,2,50000,50000,0,50000,0,0,0,0,0.00,0.00,0.00,0.00
2014-09-08 16:50:00,2,49986,0,0.00,2,2,0,2,49862,50000,41,50000,0,0,0,0,0.00,0.00,0.00,0.00
2014-09-08 17:00:00,2,50000,0,0.00,2,2,0,2,50000,50000,0,50000,0,0,0,0,0.00,0.00,0.00,0.00
2014-09-08 17:10:00,2,50000,0,0.00,2,2,0,2,50000,50000,0,50000,0,0,0,0,0.00,0.00,0.00,0.00
2014-09-08 17:20:00,2,50000,0,0.00,2,2,0,2,50000,50000,0,50000,0,0,0,0,0.00,0.00,0.00,0.00
2014-09-08 17:30:00,2,49628,0,0.00,2,2,0,2,46279,50000,1116,50000,0,0,0,0,0.00,0.00,0.00,0.00
2014-09-08 17:40:00,2,50000,0,0.00,2,2,0,2,50000,50000,0,50000,0,0,0,0,0.00,0.00,0.00,0.00
2014-09-08 17:50:00,2,49890,0,0.00,2,2,0,2,48989,50000,301,50000,0,0,0,0,0.00,0.00,0.00,0.00
2014-09-08 18:00:00,2,50000,0,0.00,2,2,0,2,50000,50000,0,50000,0,0,0,0,0.00,0.00,0.00,0.00
2014-09-08 18:10:00,2,50000,0,0.00,2,2,0,2,50000,50000,0,50000,0,0,0,0,0.00,0.00,0.00,0.00
2014-09-08 18:20:00,2,50000,0,0.00,2,2,0,2,50000,50000,0,50000,0,0,0,0,0.00,0.00,0.00,0.00
2014-09-08 18:30:00,2,49914,0,0.00,2,2,0,2,49141,50000,258,50000,0,0,0,0,0.00,0.00,0.00,0.00
2014-09-08 18:40:00,2,48018,0,0.00,2,2,0,2,42047,50000,3119,50000,0,0,0,0,0.00,0.00,0.00,0.00
2014-09-08 18:50:00,2,49499,0,0.00,2,2,0,2,44989,50000,1503,50000,0,0,0,0,0.00,0.00,0.00,0.00
2014-09-08 19:00:00,2,50000,0,0.00,2,2,0,2,50000,50000,0,50000,0,0,0,0,0.00,0.00,0.00,0.00
2014-09-08 19:10:00,2,49590,0,0.00,2,2,0,2,45905,50000,1228,50000,0,0,0,0,0.00,0.00,0.00,0.00
2014-09-08 19:20:00,2,49944,0,0.00,2,2,0,2,49440,50000,168,50000,0,0,0,0,0.00,0.00,0.00,0.00
2014-09-08 19:30:00,2,50000,0,0.00,2,2,0,2,50000,50000,0,50000,0,0,0,0,0.00,0.00,0.00,0.00
2014-09-08 19:40:00,2,49905,0,0.00,2,2,0,2,49051,50000,285,50000,0,0,0,0,0.00,0.00,0.00,0.00
2014-09-08 19:50:00,2,50000,0,0.00,2,2,0,2,50000,50000,0,50000,0,0,0,0,0.00,0.00,0.00,0.00
2014-09-08 20:00:00,2,49931,0,0.00,2,2,0,2,49306,50000,208,50000,0,0,0,0,0.00,0.00,0.00,0.00
2014-09-08 20:10:00,2,50000,0,0.00,2,2,0,2,50000,50000,0,50000,0,0,0,0,0.00,0.00,0.00,0.00
2014-09-08 20:20:00,2,49911,0,0.00,2,2,0,2,49110,50000,267,50000,0,0,0,0,0.00,0.00,0.00,0.00
2014-09-08 20:30:00,2,49759,0,0.00,2,2,0,2,48528,50000,496,50000,0,0,0,0,0.00,0.00,0.00,0.00
2014-09-08 20:40:00,2,49695,0,0.00,2,2,0,2,47563,50000,734,50000,0,0,0,0,0.00,0.00,0.00,0.00
2014-09-08 20:50:00,2,48729,0,0.00,2,2,0,2,43489,50000,2009,50000,0,0,0,0,0.00,0.00,0.00,0.00
2014-09-08 21:00:00,2,50000,0,0.00,2,2,0,2,50000,50000,0,50000,0,0,0,0,0.00,0.00,0.00,0.00
2014-09-08 21:10:00,2,49197,0,0.00,2,2,0,2,45924,50000,1464,50000,0,0,0,0,0.00,0.00,0.00,0.00
2014-09-08 21:20:00,2,49723,0,0.00,2,2,0,2,47311,50000,804,50000,0,0,0,0,0.00,0.00,0.00,0.00
2014-09-08 21:30:00,2,49676,0,0.00,2,2,0,2,48446,50000,553,50000,0,0,0,0,0.00,0.00,0.00,0.00
2014-09-08 21:40:00,2,49682,0,0.00,2,2,0,2,48709,50000,440,49920,0,0,0,0,0.00,0.00,0.00,0.00
2014-09-08 21:50:00,2,48263,0,0.00,2,2,0,2,43796,50000,2397,50000,0,0,0,0,0.00,0.00,0.00,0.00
2014-09-08 22:00:00,2,48051,0,0.00,2,2,0,2,44756,50000,1877,48962,0,0,0,0,0.00,0.00,0.00,0.00
2014-09-08 22:10:00,2,49687,0,0.00,2,2,0,2,47283,50000,805,50000,0,0,0,0,0.00,0.00,0.00,0.00
2014-09-08 22:20:00,2,48603,0,0.00,2,2,0,2,42492,50000,2193,49382,0,0,0,0,0.00,0.00,0.00,0.00
2014-09-08 22:30:00,2,49258,0,0.00,2,2,0,2,45970,50000,1492,50000,0,0,0,0,0.00,0.00,0.00,0.00
2014-09-08 22:40:00,2,49204,0,0.00,2,2,0,2,42856,50000,2122,50000,0,0,0,0,0.00,0.00,0.00,0.00
2014-09-08 22:50:00,2,48424,0,0.00,2,2,0,2,43519,50000,2152,49882,0,0,0,0,0.00,0.00,0.00,0.00
2014-09-08 23:00:00,2,48653,0,0.00,2,2,0,2,46064,50000,1433,49101,0,0,0,0,0.00,0.00,0.00,0.00
2014-09-08 23:10:00,2,48281,0,0.00,2,2,0,2,43063,50000,1996,48828,0,0,0,0,0.00,0.00,0.00,0.00
2014-09-08 23:20:00,2,48427,0,0.00,2,2,0,2,42523,50000,2731,50000,0,0,0,0,0.00,0.00,0.00,0.00
2014-09-08 23:30:00,2,47670,0,0.00,2,2,0,2,42939,50000,2656,48893,0,0,0,0,0.00,0.00,0.00,0.00
2014-09-08 23:40:00,2,46869,0,0.00,2,2,0,2,39142,50000,4088,49030,0,0,0,0,0.00,0.00,0.00,0.00
2014-09-08 23:50:00,2,47044,0,0.00,2,2,0,2,43987,50000,2264,47406,0,0,0,0,0.00,0.00,0.00,0.00
